Location: Castiglione Fibocchi
(43.5333°N, 11.7667°E)
Time: 16:53:22
(UTC+00:00)

Cosmos 1953 - Pass Details

Date: 15 August 2020
Orbit: 538 x 558 km, 82.5° (Epoch: 17 September)

Event Time Altitude Azimuth Distance (km) Brightness Sun altitude
Exits shadow 01:24:26 57° 59° (ENE) 662 2.9 -25.6°
Drops below altitude 10° 01:27:59 10° 15° (NNE) 1,850 5.9 -25.2°
Sets 01:30:11 0° 12° (NNE) 2,752 7.0 -25.0°
